Weather History for KOGB - June, 2013

Change the Weather History Date:

Saturday, June 8, 2013

  Actual Average Record
Temperature  
Mean Temperature 78 °F 77 °F  
Max Temperature 86 °F 88 °F 100 °F (1993)
Min Temperature 69 °F 66 °F 54 °F (1991)
Degree Days  
Heating Degree Days 0 0  
Month to date heating degree days 0 0  
Since 1 June heating degree days 0 0  
Since 1 July heating degree days 2181 2332  
Cooling Degree Days 13 12  
Month to date cooling degree days 106 91  
Year to date cooling degree days 368 394  
Since 1 June cooling degree days 106 91  
Growing Degree Days 26 (Base 50)    
Moisture  
Dew Point 69 °F    
Average Humidity 79    
Maximum Humidity 97    
Minimum Humidity 55    
Precipitation  
Precipitation 0.00 in 0.17 in 1.54 in (1983)
Month to date precipitation 3.78 1.30  
Year to date precipitation 21.16 18.92  
Sea Level Pressure  
Sea Level Pressure 29.98 in    
Wind  
Wind Speed 5 mph (SW)    
Max Wind Speed 14 mph    
Max Gust Speed 23 mph    
Visibility 10 miles    
Events      
T = Trace of Precipitation, MM = Missing Value Source: NWS Daily Summary

Daily Weather History Graph

Daily Weather History Graph

Search for Another Location

Airport or City:

Trip Planner

Search our weather history database for the weather conditions in past years. The results will help you decide how hot, cold, wet, or windy it might be!

Date:

Astronomy

Jun. 08, 2013 Rise Set
Actual Time 6:13 AM EDT 8:32 PM EDT
Civil Twilight 5:44 AM EDT 9:00 PM EDT
Nautical Twilight 5:09 AM EDT 9:36 PM EDT
Astronomical Twilight 4:30 AM EDT 10:14 PM EDT
Moon 6:17 AM EDT (6/8) 8:36 PM EDT (6/8)
Length of Visible Light 15h 16m
Length of Day
14h 18m
New Moon, 0% of the Moon is Illuminated
Jun 8
New Moon
Jun 16
First Quarter
Jun 23
Full
Jun 30
Last Quarter
Jul 8
New

Hourly Weather History & Observations

Time (EDT) Temp. Heat Index Dew Point Humidity Pressure Visibility Wind Dir Wind Speed Gust Speed Precip Events Conditions
12:53 AM 72.0 °F - 70.0 °F 93% 29.88 in 10.0 mi SW 4.6 mph - N/A   Partly Cloudy
1:53 AM 72.0 °F - 70.0 °F 93% 29.86 in 10.0 mi SSW 4.6 mph - N/A   Clear
2:53 AM 71.1 °F - 68.0 °F 90% 29.86 in 10.0 mi South 4.6 mph - N/A   Partly Cloudy
3:53 AM 70.0 °F - 68.0 °F 93% 29.86 in 10.0 mi SW 5.8 mph - N/A   Mostly Cloudy
4:53 AM 70.0 °F - 68.0 °F 93% 29.88 in 10.0 mi SSW 3.5 mph - N/A   Clear
5:53 AM 70.0 °F - 68.0 °F 93% 29.89 in 10.0 mi SW 5.8 mph - N/A   Clear
6:13 AM 69.8 °F - 68.0 °F 94% 29.91 in 10.0 mi SW 4.6 mph - N/A   Mostly Cloudy
6:53 AM 70.0 °F - 68.0 °F 93% 29.92 in 10.0 mi WSW 6.9 mph - N/A   Overcast
7:38 AM 71.6 °F - 68.0 °F 88% 29.95 in 10.0 mi WSW 5.8 mph - N/A   Overcast
7:53 AM 71.1 °F - 69.1 °F 93% 29.95 in 10.0 mi WSW 6.9 mph - N/A   Overcast
8:16 AM 71.6 °F - 69.8 °F 94% 29.97 in 10.0 mi WSW 6.9 mph - N/A   Overcast
8:28 AM 73.4 °F - 69.8 °F 88% 29.97 in 10.0 mi WSW 8.1 mph - N/A   Overcast
8:53 AM 73.9 °F - 68.0 °F 82% 29.97 in 10.0 mi WSW 10.4 mph - N/A   Mostly Cloudy
9:00 AM 73.4 °F - 68.0 °F 83% 29.98 in 10.0 mi WSW 10.4 mph - N/A   Scattered Clouds
9:53 AM 75.0 °F - 68.0 °F 79% 30.00 in 10.0 mi WSW 8.1 mph - N/A   Partly Cloudy
10:16 AM 75.2 °F - 68.0 °F 78% 30.01 in 10.0 mi West 8.1 mph - N/A   Mostly Cloudy
10:53 AM 77.0 °F - 68.0 °F 74% 30.01 in 10.0 mi West 9.2 mph - N/A   Mostly Cloudy
11:10 AM 78.8 °F - 68.0 °F 69% 30.02 in 10.0 mi WSW 10.4 mph - N/A   Mostly Cloudy
11:53 AM 80.1 °F 82.9 °F 69.1 °F 69% 30.01 in 10.0 mi West 8.1 mph - N/A   Mostly Cloudy
12:01 PM 82.4 °F 85.4 °F 68.0 °F 62% 30.02 in 10.0 mi West 12.7 mph 19.6 mph N/A   Mostly Cloudy
12:53 PM 82.9 °F 85.8 °F 68.0 °F 60% 30.01 in 10.0 mi West 10.4 mph - N/A   Scattered Clouds
1:53 PM 84.0 °F 86.5 °F 66.9 °F 56% 30.01 in 10.0 mi WSW 8.1 mph - N/A   Scattered Clouds
2:53 PM 84.9 °F 87.6 °F 66.9 °F 55% 30.00 in 10.0 mi Variable 6.9 mph - N/A   Scattered Clouds
3:53 PM 84.9 °F 87.6 °F 66.9 °F 55% 30.00 in 10.0 mi Variable 5.8 mph - N/A   Scattered Clouds
4:53 PM 84.9 °F 87.1 °F 66.0 °F 53% 30.00 in 10.0 mi WSW 8.1 mph - N/A   Scattered Clouds
5:53 PM 84.9 °F 87.6 °F 66.9 °F 55% 30.01 in 10.0 mi SSW 3.5 mph - N/A   Clear
6:53 PM 82.9 °F 86.5 °F 69.1 °F 63% 30.02 in 10.0 mi South 3.5 mph - N/A   Clear
7:53 PM 81.0 °F 84.4 °F 70.0 °F 69% 30.05 in 10.0 mi SSW 4.6 mph - N/A   Clear
8:53 PM 78.1 °F - 72.0 °F 81% 30.06 in 10.0 mi Calm Calm - N/A   Clear
9:53 PM 75.0 °F - 71.1 °F 87% 30.07 in 10.0 mi Calm Calm - N/A   Clear
10:53 PM 73.9 °F - 71.1 °F 91% 30.09 in 10.0 mi Calm Calm - N/A   Clear
11:53 PM 73.0 °F - 70.0 °F 90% 30.09 in 10.0 mi Calm Calm - N/A   Clear